User: anonymous   Login
Location: San Bernardino
(34.1083°N, 117.2898°W)
Time: 07:03:59
(UTC+00:00)
Language:

Cosmos 1553 Rocket - Orbit

View from above orbital plane
View from above orbital plane
View from above satellite
View from above satellite

Ground track
Ground track

The orbit data is extracted from the following two-line orbital elements,

1 14974U 84046B   24164.80503289  .00000077  00000-0  61322-4 0  9991
2 14974  82.9372  43.1906 0046241  58.3500  14.9876 13.77058597 13189
Epoch (UTC): 12 June 2024 19:19:14
Eccentricity: 0.0046241
inclination: 82.9372°
perigee height: 940 km
apogee height: 1008 km
right ascension of ascending node: 43.1906°
argument of perigee: 58.3500°
revolutions per day: 13.77058597
mean anomaly at epoch: 14.9876°
orbit number at epoch: 1318

The dashed part of the orbit path shows where the satellite is in the earth's shadow,  

DLR